[[{"header":{"parameterUnit":"m.s-1","parameterCategory":1,"la1":30.2991,"la2":30.254,"lo1":-89.0895,"lo2":-89.0444,"dy":0.0017,"dx":0.0017,"nx":28,"ny":28,"refTime":"2024-04-08T03:00:00:Z","depth":0,"parameterNumber":2,"parameterNumberName":"U-component_of_WINDS"},"data":[0,0,0,0,0,0,0,0,0,0,0,0,0,0,0,0,0,0,0,0,0,0,0,0,0,0,0,0,0,0,0,0,0,0,0,0,0,0,0,0,0,0,0,0,0,0,0,0,0,0,0,0,0,0,0,0,0,0,-5.5417,-5.5418,0,-5.549,-5.5491,-5.5492,-5.5443,-5.5441,-5.5439,-5.5436,-5.551,-5.5514,-5.5518,0,0,0,0,0,0,0,0,0,0,0,0,0,-5.5233,-5.5236,-5.5417,-5.5418,-5.5419,-5.549,-5.5491,-5.5492,-5.5443,-5.5441,-5.5438,-5.5435,-5.5509,-5.5514,-5.5519,0,0,0,0,0,0,0,0,0,0,0,0,0,-5.531,-5.5237,-5.5417,-5.5403,-5.5402,-5.549,-5.5491,-5.5492,-5.5444,-5.5441,-5.5437,-5.5434,-5.5508,-5.5513,-5.5519,-5.5624,0,0,-5.5538,-5.5541,0,0,0,0,0,0,0,0,-5.5306,-5.5317,-5.5404,-5.5404,-5.5404,-5.5454,-5.5453,-5.5537,-5.5445,-5.5428,-5.5436,-5.5432,-5.5494,-5.5501,-5.5522,-5.5628,-5.5631,-5.5539,-5.5542,-5.5545,-5.5547,0,0,0,0,0,0,0,-5.53,-5.5313,-5.5446,-5.5405,-5.5405,-5.5393,-5.54,-5.5469,-5.5479,-5.5429,-5.5426,-5.5435,-5.5494,-5.5517,-5.5524,-5.5632,-5.5538,-5.5544,-5.5548,-5.555,-5.5826,-5.5829,0,0,0,0,0,0,-5.5296,-5.5309,-5.5443,-5.5448,-5.5345,-5.5399,-5.5407,-5.5441,-5.5478,-5.5481,-5.5438,-5.5433,-5.5508,-5.5517,-5.5526,-5.565,-5.5545,-5.5551,-5.5554,-5.5822,-5.5827,-5.5831,0,0,0,0,0,0,-5.5293,-5.5309,-5.544,-5.5378,-5.5394,-5.5405,-5.5444,-5.5444,-5.5467,-5.5485,-5.5486,-5.546,-5.5506,-5.5518,-5.56,-5.5652,-5.5553,-5.5559,-5.5818,-5.5823,-5.5829,-5.5898,0,0,0,0,0,0,-5.5288,-5.5308,-5.5348,-5.5379,-5.5397,-5.5513,-5.5448,-5.5448,-5.5478,-5.5472,-5.5506,-5.5508,-5.5504,-5.5591,-5.5606,-5.5658,-5.5564,-5.5813,-5.582,-5.5827,-5.5891,-5.5906,-5.5918,0,0,0,0,0,-5.5281,-5.5365,-5.535,-5.5367,-5.5448,-5.5517,-5.5527,-5.5521,-5.5483,-5.5523,-5.5534,-5.5507,-5.5644,-5.56,-5.5616,-5.5671,-5.581,-5.5818,-5.5826,-5.5886,-5.5903,-5.5917,0,0,0,0,0,0,-5.5338,-5.5368,-5.5353,-5.5449,-5.5481,-5.5508,-5.5558,-5.5539,-5.5582,-5.5574,-5.5565,-5.5573,-5.5659,-5.5674,-5.5624,-5.5774,-5.5721,-5.5733,-5.576,-5.5777,-5.579,-5.5783,-5.5569,0,0,0,0,0,-5.5362,-5.5416,-5.544,-5.5522,-5.5539,-5.5546,-5.5576,-5.5569,-5.5601,-5.5614,-5.5631,-5.5663,-5.5713,-5.5747,-5.5794,-5.5895,-5.59,-5.594,-5.5954,-5.5964,-5.5974,-5.6027,-5.6044,-5.5858,-5.5858,-5.5857,0,0,-5.5412,-5.5435,-5.547,-5.5534,-5.5558,-5.5613,-5.5558,-5.5619,-5.5659,-5.5623,-5.5701,-5.5716,-5.5751,-5.5842,-5.5884,-5.5857,-5.6027,-5.5975,-5.5983,-5.5987,-5.6037,-5.6054,-5.607,-5.5863,-5.5862,-5.5861,0,0,-5.553,-5.5554,-5.5624,-5.565,-5.5687,-5.5691,-5.5708,-5.5739,-5.5747,-5.5826,-5.58,-5.5848,-5.5935,-5.5961,-5.5985,-5.6115,-5.6091,-5.6131,-5.6198,-5.625,-5.6264,-5.6277,-5.6321,-5.6337,-5.6141,-5.6141,-5.6141,0,-5.5586,-5.5669,-5.5663,-5.5726,-5.5754,-5.5726,-5.5796,-5.5821,-5.5872,-5.5892,-5.5862,-5.5971,-5.5993,-5.6089,-5.612,-5.6142,-5.616,-5.6125,-5.6263,-5.6276,-5.6288,-5.6329,-5.6346,-5.6145,-5.6145,-5.6144,-5.6144,0,-5.5736,-5.5794,-5.5846,-5.5896,-5.5931,-5.5998,-5.6001,-5.6037,-5.6028,-5.6035,-5.6115,-5.6141,-5.6192,-5.6215,-5.6207,-5.6311,-5.6293,-5.6264,-5.621,-5.631,-5.6349,-5.6365,-5.6152,-5.615,-5.6149,-5.6148,0,0,-5.5889,-5.5935,-5.5955,-5.5976,-5.6016,-5.606,-5.6126,-5.6176,-5.6206,-5.6243,-5.6296,-5.6372,-5.6345,-5.6373,-5.6367,-5.6413,-5.6511,-5.6377,-5.6378,-5.6399,-5.6625,-5.6645,-5.6663,-5.6497,-5.65,-5.6502,-5.6621,0,-5.6007,-5.6121,-5.6118,-5.6224,-5.6276,-5.625,-5.6307,-5.6337,-5.6347,-5.6392,-5.6403,-5.6455,-5.6417,-5.6433,-5.6478,-5.649,-5.6556,-5.6481,-5.6545,-5.6547,-5.6533,-5.6684,-5.6705,-5.6816,-5.6637,-5.6639,-5.6641,0,-5.616,-5.6201,-5.6312,-5.6343,-5.6365,-5.6416,-5.6462,-5.6507,-5.654,-5.6544,-5.6576,-5.6563,-5.6629,-5.6576,-5.6665,-5.6615,-5.6641,-5.6651,-5.6655,-5.6658,-5.6598,-5.6688,-5.6851,-5.6867,-5.6666,-5.6664,-5.6662,0,-5.6257,-5.6341,-5.6418,-5.6438,-5.6477,-5.6513,-5.6531,-5.6561,-5.6592,-5.6633,-5.6652,-5.67,-5.6726,-5.6763,-5.6763,-5.6725,-5.6853,-5.6801,-5.6857,-5.6857,-5.6882,-5.688,-5.7048,-5.6905,-5.6904,-5.6904,-5.6904,0,-5.6387,-5.6456,-5.6462,-5.6509,-5.6585,-5.6581,-5.6656,-5.667,-5.6698,-5.6747,-5.6728,-5.6774,-5.6773,-5.682,-5.6821,-5.6894,-5.6907,-5.6911,-5.6909,-5.691,-5.691,-5.6925,-5.6916,-5.6908,-5.6907,-5.6907,-5.6906,0,-5.6508,-5.6515,-5.6597,-5.6627,-5.6637,-5.6691,-5.6717,-5.6761,-5.677,-5.6831,-5.6846,-5.6859,-5.6913,-5.6918,-5.6981,-5.6982,-5.707,-5.7062,-5.7058,-5.7055,-5.711,-5.7104,-5.7292,-5.7315,-5.7159,-5.7161,-5.7162,0,-5.6589,-5.6641,-5.6677,-5.6708,-5.6728,-5.678,-5.6811,-5.681,-5.6843,-5.6886,-5.6925,-5.6977,-5.7019,-5.7107,-5.7122,-5.717,-5.7161,-5.7224,-5.7168,-5.7167,-5.7159,-5.7154,-5.7159,-5.7234,-5.7235,-5.7237,-5.7238,0,-5.6731,-5.6732,-5.6778,-5.6826,-5.6863,-5.6901,-5.6935,-5.6962,-5.6966,-5.7004,-5.7059,-5.7092,-5.7156,-5.7208,-5.7256,-5.7274,-5.7256,-5.7256,-5.7271,-5.7271,-5.7265,-5.7266,-5.7084,-5.7251,-5.7249,-5.7249,-5.7248,-5.7247,-5.6832,-5.6877,-5.6909,-5.696,-5.6987,-5.702,-5.7063,-5.7077,-5.7123,-5.7175,-5.7173,-5.7233,-5.7266,-5.7328,-5.7349,-5.7397,-5.7375,-5.7398,-5.7403,-5.7408,-5.7412,-5.7261,-5.7406,-5.7405,-5.7405,-5.7405,-5.7405,0,-5.6971,-5.6991,-5.7039,-5.7088,-5.7128,-5.711,-5.7148,-5.7182,-5.7236,-5.7268,-5.731,-5.7373,-5.7424,-5.7444,-5.7493,-5.7527,-5.752,-5.7539,-5.7535,-5.7539,-5.7429,-5.741,-5.7544,-5.7544,-5.7544,-5.7544,-5.7544,-5.7544,-5.7048,-5.7121,-5.7127,-5.7213,-5.7232,-5.7292,-5.7314,-5.7345,-5.737,-5.7441,-5.7483,-5.7496,-5.7523,-5.7574,-5.762,-5.7624,-5.7642,-5.7665,-5.7665,-5.7561,-5.7547,-5.7534,-5.7515,-5.7669,-5.7669,-5.7771,-5.7772,-5.7772]},{"header":{"parameterUnit":"m.s-1","parameterCategory":1,"la1":30.2991,"la2":30.254,"lo1":-89.0895,"lo2":-89.0444,"dy":0.0017,"dx":0.0017,"nx":28,"ny":28,"refTime":"2024-04-08T03:00:00:Z","depth":0,"parameterNumber":3,"parameterNumberName":"V-component_of_WINDS"},"data":[0,0,0,0,0,0,0,0,0,0,0,0,0,0,0,0,0,0,0,0,0,0,0,0,0,0,0,0,0,0,0,0,0,0,0,0,0,0,0,0,0,0,0,0,0,0,0,0,0,0,0,0,0,0,0,0,0,0,2.5979,2.598,0,2.6053,2.6054,2.6054,2.6086,2.6086,2.6086,2.6086,2.6158,2.616,2.6162,0,0,0,0,0,0,0,0,0,0,0,0,0,2.5865,2.5867,2.5979,2.598,2.5981,2.6053,2.6054,2.6055,2.6086,2.6086,2.6086,2.6086,2.6157,2.6159,2.6162,0,0,0,0,0,0,0,0,0,0,0,0,0,2.5924,2.5867,2.5979,2.6005,2.6008,2.6052,2.6054,2.6055,2.6086,2.6086,2.6086,2.6085,2.6156,2.6159,2.6162,2.6184,0,0,2.6171,2.6173,0,0,0,0,0,0,0,0,2.5921,2.5928,2.6001,2.6004,2.6007,2.606,2.604,2.6098,2.6086,2.6056,2.6086,2.6085,2.6125,2.6131,2.6145,2.6188,2.6191,2.6172,2.6174,2.6175,2.6176,0,0,0,0,0,0,0,2.5916,2.5925,2.6008,2.6002,2.6006,2.6013,2.6021,2.6051,2.6091,2.6059,2.6061,2.607,2.6127,2.6142,2.6147,2.6192,2.6172,2.6174,2.6176,2.6177,2.6259,2.626,0,0,0,0,0,0,2.5908,2.5921,2.6006,2.601,2.5963,2.6015,2.6025,2.6043,2.6091,2.6098,2.607,2.6071,2.6137,2.6143,2.6149,2.618,2.6175,2.6178,2.6179,2.6259,2.6259,2.626,0,0,0,0,0,0,2.5906,2.5915,2.6003,2.5967,2.5978,2.6018,2.6038,2.6045,2.606,2.6099,2.6106,2.6078,2.6137,2.6145,2.6176,2.6183,2.6179,2.6182,2.6259,2.6259,2.626,2.624,0,0,0,0,0,0,2.5902,2.5914,2.5923,2.5967,2.598,2.6029,2.6039,2.6046,2.6065,2.6067,2.6108,2.6115,2.6137,2.6172,2.6179,2.6187,2.6184,2.6258,2.6259,2.6259,2.6241,2.624,2.624,0,0,0,0,0,2.5898,2.5914,2.5923,2.5933,2.5992,2.6029,2.6037,2.6063,2.6066,2.6075,2.6101,2.6114,2.6181,2.6174,2.6183,2.6192,2.6258,2.6259,2.6259,2.6241,2.624,2.624,0,0,0,0,0,0,2.5868,2.592,2.5931,2.5961,2.5991,2.6034,2.6047,2.6061,2.609,2.609,2.6121,2.613,2.6159,2.6179,2.617,2.6217,2.6221,2.6223,2.6203,2.6203,2.6203,2.6197,2.6187,0,0,0,0,0,2.5865,2.5892,2.5935,2.5957,2.5972,2.6007,2.6024,2.6042,2.6073,2.6085,2.6113,2.6142,2.617,2.6188,2.6216,2.6244,2.6254,2.6254,2.6254,2.6254,2.6255,2.6273,2.6275,2.6262,2.6262,2.6262,0,0,2.5859,2.5891,2.5905,2.5952,2.5977,2.6004,2.6017,2.6043,2.6063,2.6089,2.6121,2.6142,2.6177,2.6207,2.6222,2.6225,2.6261,2.6255,2.6254,2.6256,2.6274,2.6276,2.6277,2.6263,2.6263,2.6263,0,0,2.5862,2.5888,2.591,2.5936,2.5974,2.5998,2.6003,2.6045,2.6061,2.6094,2.6114,2.6138,2.6185,2.621,2.6229,2.6244,2.6257,2.6252,2.6249,2.6267,2.6268,2.6269,2.6275,2.6277,2.6253,2.6253,2.6253,0,2.5849,2.589,2.592,2.5946,2.5967,2.5994,2.6017,2.604,2.6085,2.6098,2.6101,2.6163,2.6188,2.6225,2.6229,2.6243,2.625,2.6247,2.6265,2.6267,2.6268,2.6274,2.6277,2.6253,2.6253,2.6253,2.6253,0,2.5873,2.5901,2.5915,2.596,2.5982,2.6006,2.604,2.6059,2.6076,2.61,2.6134,2.6165,2.6201,2.6211,2.6227,2.6251,2.6252,2.626,2.6263,2.6268,2.6274,2.6277,2.6251,2.6252,2.6252,2.6252,0,0,2.5856,2.592,2.5924,2.5946,2.5991,2.6014,2.604,2.6077,2.6093,2.6124,2.6147,2.6188,2.6196,2.6217,2.6236,2.6252,2.6263,2.6258,2.6259,2.6258,2.6293,2.6287,2.629,2.6273,2.6273,2.6274,2.6291,0,2.5865,2.5915,2.5944,2.5982,2.6009,2.6036,2.6059,2.609,2.6113,2.6139,2.6164,2.6193,2.6202,2.6215,2.6231,2.6258,2.6271,2.6257,2.6294,2.6295,2.6285,2.6293,2.6286,2.63,2.6293,2.6294,2.6294,0,2.5882,2.5914,2.5955,2.6,2.6013,2.6033,2.607,2.6095,2.6131,2.6147,2.6172,2.6192,2.6221,2.6223,2.6264,2.6255,2.6272,2.6288,2.6289,2.6293,2.6295,2.6297,2.6305,2.6308,2.6298,2.6298,2.6297,0,2.5867,2.5921,2.5953,2.597,2.6023,2.6037,2.606,2.6095,2.6116,2.6148,2.6162,2.6197,2.6216,2.6242,2.6271,2.627,2.631,2.6314,2.6324,2.6323,2.633,2.6329,2.6341,2.6341,2.6341,2.6341,2.6341,0,2.5874,2.5898,2.5947,2.5967,2.5995,2.6028,2.6055,2.608,2.6112,2.6137,2.6162,2.6185,2.6221,2.6249,2.6271,2.6303,2.6311,2.6325,2.633,2.6323,2.6321,2.6334,2.6334,2.6342,2.6342,2.6341,2.6341,0,2.5862,2.5895,2.5932,2.598,2.5993,2.6012,2.6053,2.6073,2.6099,2.613,2.6139,2.6179,2.6213,2.6245,2.6289,2.6304,2.6336,2.6343,2.6325,2.6328,2.6336,2.6335,2.6357,2.6362,2.6358,2.6358,2.6358,0,2.5864,2.5883,2.5934,2.5954,2.5976,2.6007,2.6029,2.6063,2.6085,2.6129,2.6144,2.618,2.6211,2.6264,2.6296,2.6331,2.6339,2.6345,2.6344,2.6337,2.634,2.6339,2.6341,2.6344,2.6343,2.6343,2.6343,0,2.5864,2.5881,2.5912,2.5951,2.5977,2.6008,2.604,2.6054,2.6095,2.6118,2.6154,2.6178,2.6225,2.6261,2.63,2.6323,2.634,2.6344,2.6348,2.634,2.6328,2.6335,2.6323,2.6342,2.6343,2.6343,2.6343,2.6343,2.586,2.5879,2.5919,2.5954,2.5982,2.6012,2.6034,2.6064,2.6095,2.6137,2.6155,2.6192,2.6229,2.6283,2.6306,2.6335,2.6339,2.6345,2.6346,2.6347,2.6346,2.6324,2.6342,2.6342,2.6342,2.6342,2.6342,0,2.5862,2.589,2.5922,2.5967,2.5995,2.6011,2.6048,2.607,2.6102,2.6136,2.6166,2.6209,2.6244,2.628,2.6318,2.6334,2.6343,2.6343,2.6342,2.6347,2.634,2.6333,2.6335,2.6335,2.6335,2.6335,2.6335,2.6335,2.5867,2.5901,2.5923,2.5972,2.6,2.6037,2.6057,2.6085,2.6112,2.6159,2.6189,2.6213,2.6248,2.6289,2.6323,2.6332,2.6345,2.6343,2.6355,2.6347,2.6347,2.6348,2.6341,2.6345,2.6345,2.636,2.636,2.636]}]]